STARLINK-2255, 48597

Orbit data source: Space-Track

STARLINK-2255, 48597 is a payload satellite owned by SpaceX/Seattle (US) in LEO that was launched on Sat, 15 May 2021 UTC via an FALCON 9 launch vehicle from the Air Force Eastern Test Range (AFETR). Payload-class satellites include a variety of spacecraft equipped with specific instruments for various scientific and technological missions. These include communications satellites like Starlink; space stations such as the ISS; scientific satellites like the Hubble; Earth observation satellites from companies like Planet Labs, Umbra, and HawkEye 360; GPS; miniature CubeSats for education and research; and military/defense satellites.

Loading next visibility...
Identifier
48597, 2021-041AW
Orbit
LEO
Country
Flag of USUS
Related business
Manufacturer
SpaceX/Seattle
Mission
Operational Commercial Communications
Bus & Motor
STARLINK, Unknown motor
Mass
260 kg wet, ~248 kg dry
Launch date (UTC)
2021-05-15 (5 years ago)
Launch vehicle
FALCON 9
Launch site
Air Force Eastern Test Range (AFETR)
Object type
Payload
Rocket body
Debris
Shape & HBR
Box + 1 Pan, 10.1 m
Radar Cross Section
13.562 m², Large (>1 m²)

Expand to show TLE details & history
Last TLE update: 2 days ago

TLE from 2 days ago
0 STARLINK-2255
1 48597U 21041AW  26171.32043309  .00002981  00000-0  10777-3 0  9997
2 48597  53.1616  22.0536 0001347  86.5638 273.5517 15.31702863282082
Epoch: 2026-06-20T07:41Z
TLE epoch observation values (Epoch: 2026-06-20T07:41:25.418Z)
Latitude
-0.00009°
Longitude
-1.83912°
Altitude
471.575 km
Speed
7.632 km/s
True Right ascension
01h 28m 12s
True Declination
0° 00' 00"
Sunlit
Object was in daylight at epoch
Visualization orbit readout
Latitude
Unknown
Longitude
Unknown
Altitude
Unknown
Speed
Unknown
Apparent Right ascension
Unknown
Apparent Declination
Unknown
Sunlit
N/A
Visualization observer readout
Local Sidereal Time
21:49:44
Azimuth
Unknown
Elevation
Unknown
Doppler factor
Unknown
Orbital elements
Apogee altitude
471.91 km
Perigee altitude
470.065 km
Semi-major axis
6,849.125 km
Eccentricity
0.00013
Inclination
53.1616°
RAAN
22.0536°
Arg. of periapsis
86.5638°
True anomaly
273.53629°
Mean anomaly
273.5517°
Eccentric anomaly
273.544°
Mean motion
3.82905 °/min
Orbital period
94.02 mins
BSTAR
0.00010777
Loading maneuver chart data...
Computing Atmospheric mass density...

Documentation

Showing up to 5 results
|